Regional Weather Roundup
Issued by NWS

Home | Current Version | Previous Version | Text Only | Print | Product List | Glossary Off
Versions: 1 2 3 4 5 6 7 8 9 10 11 12 13 14 15 16 17 18 19 20 21 22 23 24 25 26 27 28 29 30 31 32 33 34 35 36 37 38 39 40 41 42 43 44 45 46 47 48 49 50

000
ASUS43 KMKX 211620
RWRWI

WISCONSIN REGIONAL WEATHER ROUNDUP
NATIONAL WEATHER SERVICE MILWAUKEE/SULLIVAN WI
1000 AM CST SAT JAN 21 2017

NOTE: "FAIR" INDICATES FEW OR NO CLOUDS BELOW 12,000 FEET WITH NO
SIGNIFICANT WEATHER AND/OR OBSTRUCTIONS TO VISIBILITY.

WIZ001-002-006>008-014>016-023>028-211700-
NORTHWEST WISCONSIN

CITY           SKY/WX    TMP DP  RH WIND       PRES   REMARKS
SUPERIOR ARPT  DRIZZLE   35  35 100 NE7       29.51S WCI  29
ASHLAND        CLOUDY    35  34  96 NE6       29.52F WCI  30
HAYWARD        CLOUDY    36  34  92 E6        29.47F WCI  31
SIREN          LGT RAIN  35  35  99 NE3       29.46S
CUMBERLAND     DRZL/FOG  34  32  93 CALM      29.44F VSB 1
RICE LAKE      DRIZZLE   35  35  99 NE5       29.46S WCI  31
CHETEK         CLOUDY    35  35 100 E3        29.45S FOG
LADYSMITH      LGT RAIN  36  35  99 E7        29.48S WCI  30
EAU CLAIRE     CLOUDY    35  35 100 E3        29.44S FOG
MENOMONIE        N/A    N/A N/A N/A MISG        N/A
NEW RICHMOND   CLOUDY    35  35 100 E7        29.43S FOG     WCI  29
OSCEOLA        LGT RAIN  36  36 100 NE6       29.46S WCI  31
$$

WIZ003>005-009-010-017-018-211700-
NORTH CENTRAL WISCONSIN

CITY           SKY/WX    TMP DP  RH WIND       PRES   REMARKS
MANITOWISH WTR DRIZZLE   33  33 100 E5        29.49S WCI  29
ARBOR VITAE    MIX PCPN  37  36  96 SE7       29.50S WCI  31
WOODRUFF       MIX PCPN  37  36  96 SE7       29.50S WCI  31
RHINELANDER    LGT RAIN  34  34 100 E12       29.50F VSB 3/4 WCI  25
EAGLE RIVER    CLOUDY    33  33 100 SE6       29.51S WCI  28
LAND O LAKES   CLOUDY    34  33  98 E7        29.52F WCI  28
PHILLIPS       RAIN      34  34 100 E6        29.47S WCI  29
TOMAHAWK       CLOUDY    34  33  96 E5        29.49F FOG     WCI  30
MEDFORD        DRIZZLE   34  33  99 E9        29.45F WCI  26
MERRILL        CLOUDY    35  35 100 E8          N/A  FOG     WCI  28
$$

WIZ029-030-035-036-043>047-211700-
CENTRAL WISCONSIN

CITY           SKY/WX    TMP DP  RH WIND       PRES   REMARKS
WAUSAU         FOG       34  34 100 E9        29.47F VSB 1/2 WCI  27
MOSINEE        FOG       36  36 100 E10       29.47F VSB 1/8 WCI  28
MARSHFIELD     FOG       34  33  96 E13       29.44F VSB 1/4 WCI  25
STEVENS POINT  FOG       33  33 100 E8        29.48F VSB 1/4 WCI  27
WAUPACA        FOG       38  37  97 CALM      29.51F VSB 1/4
WAUTOMA        FOG       36  36 100 E8        29.49F VSB 1/4 WCI  30
WISC RAPIDS    FOG       35  35 100 E8        29.47F VSB 1/4 WCI  29
CAMP DOUGLAS   FOG       36  36 100 SE6       29.45S VSB 1/4 WCI  31
$$

WIZ011>013-019>022-031-037>040-048>050-211700-
NORTHEAST WISCONSIN

CITY           SKY/WX    TMP DP  RH WIND       PRES   REMARKS
ANTIGO         CLOUDY    32  32 100 E9        29.50F FOG     WCI  25
SHAWANO        FOG       36  35  96 E6        29.54S VSB 1/4 WCI  31
OCONTO         CLOUDY    35  35 100 E6        29.56R VSB 3/4 WCI  30
STURGEON BAY   LGT RAIN  37  37 100 E9        29.56S VSB 1/4 WCI  30
GREEN BAY      FOG       37  37 100 NE8       29.53F VSB 1/4 WCI  31
MANITOWOC      LGT RAIN  39  37  92 E6        29.54F VSB 1/4 WCI  35
APPLETON       FOG       36  36 100 E6        29.50F VSB 1/8 WCI  31
CLINTONVILLE   FOG       34  34 100 E6        29.52F VSB 1/4 WCI  29
OSHKOSH        FOG       36  36 100 E3        29.50S VSB<1/4
$$

WIZ032>034-041-042-053>061-211700-
SOUTHWEST WISCONSIN

CITY           SKY/WX    TMP DP  RH WIND       PRES   REMARKS
LA CROSSE      CLOUDY    39  36  89 E6        29.43S FOG     WCI  35
SPARTA         CLOUDY    35  35 100 E6        29.45S FOG     WCI  30
VIROQUA        CLOUDY    37  37 100 SE8       29.42S VSB<1/4 WCI  30
BOSCOBEL       FOG       39  38  96 E3        29.45S VSB 1/2
PRAIRIE DU CHI FOG       37  37  97 CALM      29.44R VSB 3/4
PLATTEVILLE    CLOUDY    40  40 100 CALM      29.45R VSB<1/4
$$

WIZ056-057-062-063-064-067-068-211700-
SOUTH CENTRAL WISCONSIN

CITY           SKY/WX    TMP DP  RH WIND       PRES   REMARKS
REEDSBURG      FOG       36  36 100 CALM      29.46R VSB 1/4
BARABOO/DELLS  FOG       37  37 100 E3        29.45S VSB 1/4
LONE ROCK      FOG       39  38  96 SE5       29.46S VSB 1/2
MINERAL POINT  FOG       43  43 100 SE3       29.44R VSB<1/4
MADISON        DRZL/FOG  41  41 100 SE5       29.48R VSB 1/2
MIDDLETON      CLOUDY    39  39 100 CALM      29.47S VSB 1/4
WATERTOWN      FOG       42  42 100 SE5       29.49R VSB 3/4
MONROE         FOG       43  43 100 S8        29.46S VSB<1/4
JANESVILLE     CLOUDY    46  46 100 S9        29.48R FOG
$$

WIZ051-052-058>065-066-070>072-211700-
SOUTHEAST WISCONSIN

CITY           SKY/WX    TMP DP  RH WIND       PRES   REMARKS
MILWAUKEE      CLOUDY    49  46  90 S9        29.51S FOG
WAUKESHA       CLOUDY    43  43 100 E5        29.52R FOG
MILWAUKEE/TIMM CLOUDY    43  41  93 CALM      29.52S FOG
RACINE         FOG       44  43  96 S10       29.53S VSB 3/4
KENOSHA        CLOUDY    49  47  93 SE7       29.51S FOG
FOND DU LAC    CLOUDY    40  37  89 SE9       29.49F FOG     WCI  34
SHEBOYGAN      FOG       38  37  97 CALM      29.52S VSB<1/4
WEST BEND      FOG       37  37 100 CALM      29.51S VSB<1/4
JUNEAU         FOG       40  40  99 E7        29.50S VSB<1/4
$$

LSZ147-162-211700-
LAKE SUPERIOR

STATION/POSITION TIME  TEMP    WIND        PRES    WAVE
                       AIR SEA DIR/SP/G            HT/PER
                 (UTC) (F)     (DEG/KT/KT) (MB)    (FT/S)
DEVILS ISLAND    1600   34      90/  6/  7 1000.9S
PORT WING        1530   34      30/  6/  7 1000.0S
SAXON HARBOR     1540   34      70/  3/  4 1000.0S
$$

LMZ867-665-643>646-211700-
LAKE MICHIGAN

STATION/POSITION TIME  TEMP    WIND        PRES    WAVE
                       AIR SEA DIR/SP/G            HT/PER
                 (UTC) (F)     (DEG/KT/KT) (MB)    (FT/S)
NORTHPORT PIER   1600   34     120/  3/  8 1002.0
SISTER BAY       1550   37     150/  7/ 11   N/A
KEWAUNEE LAKESHO 1554   36      50/  4/  6 1000.3F
SHEBOYGAN LAKESH 1600   40     140/ 11/ 11 1000.0R
PORT WASHINGTON  1530   39      60/  2/  3 1001.0S
KENOSHA   LAKESH 1600   39     180/  8/ 12 1000.3
$$

TC  - TEMPERATURE IN CELSIUS
VSB - VISIBILITY IN STATUTE MILES
WCI - WIND CHILL INDEX
HX  - HEAT INDEX





USA.gov is the U.S. government's official web portal to all federal, state and local government web resources and services.